Weather History for Grand Rapids, MI

Change the Weather History Date:

Saturday, December 24, 2011

  Actual Average Record
Temperature  
Mean Temperature 34 °F 27 °F  
Max Temperature 38 °F 33 °F 58 °F (1893)
Min Temperature 30 °F 21 °F -9 °F (1944)
Degree Days  
Heating Degree Days 31 38  
Month to date heating degree days 714 838  
Since 1 July heating degree days 1887 2176  
Cooling Degree Days 0 0  
Month to date cooling degree days 0 0  
Year to date cooling degree days 894 699  
Moisture  
Dew Point 26 °F    
Average Humidity 70    
Maximum Humidity 85    
Minimum Humidity 54    
Precipitation  
Precipitation 0.01 in 0.07 in 1.79 in (1979)
Month to date precipitation 1.98 1.97  
Year to date precipitation 44.48 37.74  
Snow  
Snow 0.20 in 0.70 in 7.50 in (1993)
Month to date snowfall 2.9 16.3  
Since 1 July snowfall 3.6 23.6  
Snow Depth 1.00 in    
Sea Level Pressure  
Sea Level Pressure 30.24 in    
Wind  
Wind Speed 11 mph (SSW)    
Max Wind Speed 18 mph    
Max Gust Speed 25 mph    
Visibility 8 miles    
Events Snow    
T = Trace of Precipitation, MM = Missing Value Source: NWS Daily Summary

Daily Weather History Graph

Daily Weather History Graph

Search for Another Location

Airport:

Trip Planner

Search our weather history database for the weather conditions in past years. The results will help you decide how hot, cold, wet, or windy it might be!

Date:

Astronomy

Dec. 24, 2011 Rise Set
Actual Time 8:11 AM EST 5:12 PM EST
Civil Twilight 7:38 AM EST 5:44 PM EST
Nautical Twilight 7:02 AM EST 6:20 PM EST
Astronomical Twilight 6:28 AM EST 6:54 PM EST
Moon 7:58 AM EST (12/24) 5:24 PM EST (12/24)
Length of Visible Light 10h 05m
Length of Day
9h 01m
Waning Crescent, 0% of the Moon is Illuminated
Dec 24
Waning Crescent
Dec 24
New
Jan 1
First Quarter
Jan 9
Full
Jan 16
Last Quarter

Hourly Weather History & Observations

Time (EST) Temp. Windchill Dew Point Humidity Pressure Visibility Wind Dir Wind Speed Gust Speed Precip Events Conditions
12:07 AM 30.2 °F 21.9 °F 26.6 °F 86% 30.21 in 2.5 mi SSW 9.2 mph - 0.01 in Snow Light Snow
12:14 AM 30.2 °F 22.6 °F 26.6 °F 86% 30.22 in 3.0 mi SSW 8.1 mph - 0.01 in Snow Light Snow
12:25 AM 30.2 °F 21.9 °F 26.6 °F 86% 30.22 in 4.0 mi SSW 9.2 mph - 0.01 in Snow Light Snow
12:34 AM 30.2 °F 22.6 °F 26.6 °F 86% 30.22 in 2.5 mi SSW 8.1 mph - 0.01 in Snow Light Snow
12:46 AM 30.2 °F 22.6 °F 26.6 °F 86% 30.22 in 3.0 mi SSW 8.1 mph - 0.01 in Snow Light Snow
1:53 AM 30.2 °F 23.4 °F 26.6 °F 86% 30.22 in 5.0 mi SSW 6.9 mph - N/A Snow Light Snow
2:53 AM 30.9 °F 23.5 °F 27.0 °F 85% 30.27 in 8.0 mi South 8.1 mph - 0.00 in   Overcast
3:26 AM 30.2 °F 22.6 °F 26.6 °F 86% 30.25 in 8.0 mi South 8.1 mph - N/A   Overcast
3:53 AM 30.9 °F 23.5 °F 27.0 °F 85% 30.29 in 8.0 mi South 8.1 mph - N/A   Overcast
4:53 AM 32.0 °F 24.2 °F 27.0 °F 82% 30.29 in 9.0 mi SSW 9.2 mph - N/A   Overcast
5:53 AM 30.9 °F 24.3 °F 27.0 °F 85% 30.30 in 9.0 mi South 6.9 mph - N/A   Overcast
6:17 AM 30.2 °F 22.6 °F 26.6 °F 86% 30.28 in 9.0 mi South 8.1 mph - N/A   Overcast
6:53 AM 30.9 °F 22.8 °F 26.1 °F 82% 30.32 in 9.0 mi South 9.2 mph - N/A   Overcast
7:53 AM 30.0 °F 20.5 °F 25.0 °F 82% 30.33 in 8.0 mi South 11.5 mph - N/A   Overcast
8:53 AM 30.0 °F 20.5 °F 25.0 °F 82% 30.34 in 7.0 mi South 11.5 mph - N/A   Overcast
9:53 AM 30.0 °F 21.7 °F 25.0 °F 82% 30.35 in 7.0 mi South 9.2 mph - N/A   Overcast
10:53 AM 32.0 °F 23.0 °F 25.0 °F 75% 30.36 in 8.0 mi South 11.5 mph - N/A   Scattered Clouds
11:53 AM 33.1 °F 24.9 °F 25.0 °F 72% 30.34 in 9.0 mi South 10.4 mph - N/A   Scattered Clouds
12:53 PM 35.1 °F 26.9 °F 25.0 °F 67% 30.29 in 10.0 mi South 11.5 mph - N/A   Scattered Clouds
1:53 PM 37.0 °F 28.1 °F 25.0 °F 62% 30.25 in 10.0 mi SSW 15.0 mph - N/A   Partly Cloudy
2:53 PM 37.0 °F 28.1 °F 24.1 °F 59% 30.24 in 10.0 mi SSW 15.0 mph 21.9 mph N/A   Partly Cloudy
3:53 PM 37.0 °F 29.8 °F 23.0 °F 57% 30.24 in 10.0 mi SSW 10.4 mph - N/A   Partly Cloudy
4:53 PM 36.0 °F 28.5 °F 24.1 °F 62% 30.23 in 10.0 mi SSW 10.4 mph - N/A   Partly Cloudy
5:53 PM 34.0 °F 26.0 °F 24.1 °F 67% 30.21 in 10.0 mi SSW 10.4 mph - N/A   Partly Cloudy
6:53 PM 32.0 °F 24.2 °F 24.8 °F 75% 30.16 in 10.0 mi South 9.2 mph - N/A   Partly Cloudy
7:53 PM 33.1 °F 23.9 °F 24.1 °F 70% 30.18 in 10.0 mi SSW 12.7 mph - N/A   Clear
8:53 PM 33.1 °F 23.4 °F 25.0 °F 72% 30.16 in 10.0 mi SSW 13.8 mph - N/A   Partly Cloudy
9:35 PM 33.8 °F 23.5 °F 26.6 °F 75% 30.12 in 10.0 mi SSW 16.1 mph - N/A   Mostly Cloudy
9:53 PM 33.1 °F 23.0 °F 26.1 °F 75% 30.14 in 10.0 mi SSW 15.0 mph 21.9 mph N/A   Partly Cloudy
10:53 PM 34.0 °F 25.5 °F 27.0 °F 75% 30.14 in 10.0 mi SSW 11.5 mph 19.6 mph N/A   Mostly Cloudy
11:30 PM 33.8 °F 25.3 °F 28.4 °F 81% 30.10 in 10.0 mi SSW 11.5 mph - N/A   Scattered Clouds
11:53 PM 33.1 °F 23.4 °F 28.0 °F 82% 30.12 in 10.0 mi SSW 13.8 mph - N/A   Scattered Clouds